Time,TemperatureF,DewpointF,PressureIn,WindDirection,WindDirectionDegrees,WindSpeedMPH,WindSpeedGustMPH,Humidity,HourlyPrecipIn,Conditions,Clouds,dailyrainin,SoftwareType,DateUTC
2013-03-02 00:00:00,23.0,21.3,29.90,WNW,292,1.0,8.0,93,0.00,,---,0.00,VWS V14.01,2013-03-02 05:00:00,
2013-03-02 00:01:00,23.0,21.3,29.90,NNW,338,5.0,5.0,93,0.00,,---,0.00,VWS V14.01,2013-03-02 05:01:00,
2013-03-02 00:06:00,23.0,21.3,29.90,WNW,292,3.0,6.0,93,0.00,,---,0.00,VWS V14.01,2013-03-02 05:06:00,
2013-03-02 00:11:00,23.0,21.3,29.90,NW,315,2.0,7.0,93,0.00,,---,0.00,VWS V14.01,2013-03-02 05:11:00,
2013-03-02 00:16:00,23.0,21.3,29.90,NNW,338,2.0,10.0,93,0.00,,---,0.00,VWS V14.01,2013-03-02 05:16:00,
2013-03-02 00:21:00,23.0,21.3,29.90,North,0,3.0,8.0,93,0.00,,---,0.00,VWS V14.01,2013-03-02 05:21:00,
2013-03-02 00:26:00,23.0,21.3,29.90,NW,315,3.0,8.0,93,0.00,,---,0.00,VWS V14.01,2013-03-02 05:26:00,
2013-03-02 00:31:00,23.0,21.3,29.90,NNE,22,2.0,8.0,93,0.00,,---,0.00,VWS V14.01,2013-03-02 05:31:00,
2013-03-02 00:37:00,23.0,21.5,29.90,North,0,1.0,8.0,94,0.00,,---,0.00,VWS V14.01,2013-03-02 05:37:00,
2013-03-02 00:42:00,23.0,21.3,29.90,NNW,338,4.0,6.0,93,0.00,,---,0.00,VWS V14.01,2013-03-02 05:42:00,
2013-03-02 00:47:00,23.0,21.3,29.90,NNE,22,1.0,8.0,93,0.00,,---,0.00,VWS V14.01,2013-03-02 05:47:00,
2013-03-02 00:52:00,23.0,21.3,29.90,NNW,338,4.0,8.0,93,0.00,,---,0.00,VWS V14.01,2013-03-02 05:52:00,
2013-03-02 00:57:00,23.0,21.3,29.90,NNW,338,1.0,11.0,93,0.00,,---,0.00,VWS V14.01,2013-03-02 05:57:00,
2013-03-02 01:02:00,23.0,21.3,29.90,North,0,5.0,6.0,93,0.00,,---,0.00,VWS V14.01,2013-03-02 06:02:00,
2013-03-02 01:07:00,22.0,20.3,29.90,North,0,5.0,9.0,93,0.00,,---,0.00,VWS V14.01,2013-03-02 06:07:00,
2013-03-02 01:12:00,22.0,20.3,29.90,NNW,338,5.0,9.0,93,0.00,,---,0.00,VWS V14.01,2013-03-02 06:12:00,
2013-03-02 01:17:00,22.0,20.3,29.90,North,0,1.0,9.0,93,0.00,,---,0.00,VWS V14.01,2013-03-02 06:17:00,
2013-03-02 01:22:00,22.0,20.5,29.90,North,0,1.0,4.0,94,0.00,,---,0.00,VWS V14.01,2013-03-02 06:22:00,
2013-03-02 01:27:00,22.0,20.5,29.90,NNW,338,3.0,6.0,94,0.00,,---,0.00,VWS V14.01,2013-03-02 06:27:00,
2013-03-02 01:33:00,22.0,20.5,29.90,North,0,2.0,6.0,94,0.00,,---,0.00,VWS V14.01,2013-03-02 06:33:00,
2013-03-02 01:38:00,22.0,20.5,29.90,NNE,22,1.0,6.0,94,0.00,,---,0.00,VWS V14.01,2013-03-02 06:38:00,
2013-03-02 01:43:00,22.0,20.5,29.90,North,0,2.0,5.0,94,0.00,,---,0.00,VWS V14.01,2013-03-02 06:43:00,
2013-03-02 01:48:00,22.0,20.5,29.90,NNW,338,4.0,5.0,94,0.00,,---,0.00,VWS V14.01,2013-03-02 06:48:00,
2013-03-02 01:53:00,22.0,20.5,29.90,NNW,338,6.0,6.0,94,0.00,,---,0.00,VWS V14.01,2013-03-02 06:53:00,
2013-03-02 01:58:00,22.0,20.5,29.90,North,0,2.0,7.0,94,0.00,,---,0.00,VWS V14.01,2013-03-02 06:58:00,
2013-03-02 02:03:00,22.0,20.5,29.89,NNW,338,1.0,4.0,94,0.00,,---,0.00,VWS V14.01,2013-03-02 07:03:00,
2013-03-02 02:08:00,22.0,20.5,29.89,NNW,338,5.0,6.0,94,0.00,,---,0.00,VWS V14.01,2013-03-02 07:08:00,
2013-03-02 02:13:00,22.0,20.5,29.89,WNW,292,2.0,6.0,94,0.00,,---,0.00,VWS V14.01,2013-03-02 07:13:00,
2013-03-02 02:18:00,22.0,20.5,29.89,NNW,338,3.0,8.0,94,0.00,,---,0.00,VWS V14.01,2013-03-02 07:18:00,
2013-03-02 02:23:00,22.0,20.5,29.89,North,0,3.0,4.0,94,0.00,,---,0.00,VWS V14.01,2013-03-02 07:23:00,
2013-03-02 02:28:00,22.0,20.5,29.89,NW,315,2.0,6.0,94,0.00,,---,0.00,VWS V14.01,2013-03-02 07:28:00,
2013-03-02 02:34:00,22.0,20.5,29.89,NW,315,5.0,6.0,94,0.00,,---,0.00,VWS V14.01,2013-03-02 07:34:00,
2013-03-02 02:39:00,22.0,20.5,29.89,NNW,338,1.0,6.0,94,0.00,,---,0.00,VWS V14.01,2013-03-02 07:39:00,
2013-03-02 02:44:00,22.0,20.5,29.89,North,0,1.0,4.0,94,0.00,,---,0.00,VWS V14.01,2013-03-02 07:44:00,
2013-03-02 02:49:00,22.0,20.5,29.89,North,0,1.0,6.0,94,0.00,,---,0.00,VWS V14.01,2013-03-02 07:49:00,
2013-03-02 02:54:00,22.0,20.5,29.89,NNW,338,5.0,6.0,94,0.00,,---,0.00,VWS V14.01,2013-03-02 07:54:00,
2013-03-02 02:59:00,22.0,20.5,29.89,NNW,338,4.0,6.0,94,0.00,,---,0.00,VWS V14.01,2013-03-02 07:59:00,
2013-03-02 03:04:00,22.0,20.5,29.89,North,0,0.0,3.0,94,0.00,,---,0.00,VWS V14.01,2013-03-02 08:04:00,
2013-03-02 03:09:00,22.0,20.5,29.89,NNW,338,2.0,4.0,94,0.00,,---,0.00,VWS V14.01,2013-03-02 08:09:00,
2013-03-02 03:14:00,22.0,20.5,29.89,NW,315,3.0,5.0,94,0.00,,---,0.00,VWS V14.01,2013-03-02 08:14:00,
2013-03-02 03:20:00,22.0,20.5,29.89,NNW,338,1.0,6.0,94,0.00,,---,0.00,VWS V14.01,2013-03-02 08:20:00,
2013-03-02 03:25:00,22.0,20.5,29.89,North,0,3.0,6.0,94,0.00,,---,0.00,VWS V14.01,2013-03-02 08:25:00,
2013-03-02 03:30:00,22.0,20.5,29.89,WNW,292,1.0,6.0,94,0.00,,---,0.00,VWS V14.01,2013-03-02 08:30:00,
2013-03-02 03:35:00,22.0,20.5,29.88,NNW,338,2.0,6.0,94,0.00,,---,0.00,VWS V14.01,2013-03-02 08:35:00,
2013-03-02 03:40:00,22.0,20.5,29.88,NNE,22,2.0,6.0,94,0.00,,---,0.00,VWS V14.01,2013-03-02 08:40:00,
2013-03-02 03:45:00,22.0,20.5,29.88,North,0,4.0,5.0,94,0.00,,---,0.00,VWS V14.01,2013-03-02 08:45:00,
2013-03-02 03:50:00,22.0,20.5,29.88,NNW,338,6.0,8.0,94,0.00,,---,0.00,VWS V14.01,2013-03-02 08:50:00,
2013-03-02 03:55:00,22.0,20.5,29.88,North,0,3.0,8.0,94,0.00,,---,0.00,VWS V14.01,2013-03-02 08:55:00,
2013-03-02 04:01:00,22.0,20.5,29.88,North,0,3.0,3.0,94,0.00,,---,0.00,VWS V14.01,2013-03-02 09:01:00,
2013-03-02 04:06:00,21.0,19.5,29.88,NNE,22,1.0,5.0,94,0.00,,---,0.00,VWS V14.01,2013-03-02 09:06:00,
2013-03-02 04:11:00,21.0,19.5,29.88,NNE,22,3.0,5.0,94,0.00,,---,0.00,VWS V14.01,2013-03-02 09:11:00,
2013-03-02 04:16:00,21.0,19.5,29.88,NNE,22,1.0,5.0,94,0.00,,---,0.00,VWS V14.01,2013-03-02 09:16:00,
2013-03-02 04:21:00,21.0,19.5,29.88,NNE,22,1.0,3.0,94,0.00,,---,0.00,VWS V14.01,2013-03-02 09:21:00,
2013-03-02 04:26:00,21.0,19.5,29.88,North,0,2.0,4.0,94,0.00,,---,0.00,VWS V14.01,2013-03-02 09:26:00,
2013-03-02 04:31:00,21.0,19.5,29.88,NNE,22,3.0,5.0,94,0.00,,---,0.00,VWS V14.01,2013-03-02 09:31:00,
2013-03-02 04:36:00,21.0,19.5,29.88,NNW,338,0.0,5.0,94,0.00,,---,0.00,VWS V14.01,2013-03-02 09:36:00,
2013-03-02 04:41:00,21.0,19.5,29.88,North,0,2.0,3.0,94,0.00,,---,0.00,VWS V14.01,2013-03-02 09:41:00,
2013-03-02 04:46:00,21.0,19.5,29.88,North,0,1.0,5.0,94,0.00,,---,0.00,VWS V14.01,2013-03-02 09:46:00,
2013-03-02 04:51:00,21.0,19.5,29.88,North,0,1.0,5.0,94,0.00,,---,0.00,VWS V14.01,2013-03-02 09:51:00,
2013-03-02 04:56:00,21.0,19.5,29.88,NNE,22,3.0,5.0,94,0.00,,---,0.00,VWS V14.01,2013-03-02 09:56:00,
2013-03-02 05:01:00,21.0,19.5,29.88,NNE,22,2.0,4.0,94,0.00,,---,0.00,VWS V14.01,2013-03-02 10:01:00,
2013-03-02 05:06:00,21.0,19.5,29.88,North,0,1.0,4.0,94,0.00,,---,0.00,VWS V14.01,2013-03-02 10:06:00,
2013-03-02 05:12:00,21.0,19.5,29.88,North,0,1.0,5.0,94,0.00,,---,0.00,VWS V14.01,2013-03-02 10:12:00,
2013-03-02 05:17:00,21.0,19.5,29.88,North,0,1.0,6.0,94,0.00,,---,0.00,VWS V14.01,2013-03-02 10:17:00,
2013-03-02 05:22:00,21.0,19.5,29.88,NNE,22,2.0,4.0,94,0.00,,---,0.00,VWS V14.01,2013-03-02 10:22:00,
2013-03-02 05:27:00,21.0,19.5,29.88,NNE,22,3.0,6.0,94,0.00,,---,0.00,VWS V14.01,2013-03-02 10:27:00,
2013-03-02 05:32:00,21.0,19.5,29.88,North,0,1.0,6.0,94,0.00,,---,0.00,VWS V14.01,2013-03-02 10:32:00,
2013-03-02 05:37:00,21.0,19.5,29.88,North,0,2.0,6.0,94,0.00,,---,0.00,VWS V14.01,2013-03-02 10:37:00,
2013-03-02 05:43:00,21.0,19.5,29.88,North,0,5.0,7.0,94,0.00,,---,0.00,VWS V14.01,2013-03-02 10:43:00,
2013-03-02 05:48:00,21.0,19.5,29.88,North,0,1.0,8.0,94,0.00,,---,0.00,VWS V14.01,2013-03-02 10:48:00,
2013-03-02 05:53:00,21.0,19.3,29.88,North,0,4.0,8.0,93,0.00,,---,0.00,VWS V14.01,2013-03-02 10:53:00,
2013-03-02 05:58:00,21.0,19.5,29.88,North,0,2.0,8.0,94,0.00,,---,0.00,VWS V14.01,2013-03-02 10:58:00,
2013-03-02 06:03:00,21.0,19.3,29.88,NNE,22,3.0,5.0,93,0.00,,---,0.00,VWS V14.01,2013-03-02 11:03:00,
2013-03-02 06:08:00,21.0,19.3,29.88,North,0,2.0,6.0,93,0.00,,---,0.00,VWS V14.01,2013-03-02 11:08:00,
2013-03-02 06:13:00,21.0,19.3,29.88,NNE,22,1.0,8.0,93,0.00,,---,0.00,VWS V14.01,2013-03-02 11:13:00,
2013-03-02 06:18:00,21.0,19.3,29.88,NNE,22,2.0,8.0,93,0.00,,---,0.00,VWS V14.01,2013-03-02 11:18:00,
2013-03-02 06:23:00,21.0,19.3,29.88,North,0,4.0,6.0,93,0.00,,---,0.00,VWS V14.01,2013-03-02 11:23:00,
2013-03-02 06:28:00,21.0,19.3,29.88,North,0,3.0,6.0,93,0.00,,---,0.00,VWS V14.01,2013-03-02 11:28:00,
2013-03-02 06:34:00,21.0,19.3,29.88,North,0,1.0,6.0,93,0.00,,---,0.00,VWS V14.01,2013-03-02 11:34:00,
2013-03-02 06:39:00,21.0,19.3,29.88,NNW,338,1.0,6.0,93,0.00,,---,0.00,VWS V14.01,2013-03-02 11:39:00,
2013-03-02 06:44:00,20.0,18.3,29.88,NW,315,5.0,7.0,93,0.00,,---,0.00,VWS V14.01,2013-03-02 11:44:00,
2013-03-02 06:49:00,20.0,18.3,29.89,North,0,1.0,7.0,93,0.00,,---,0.00,VWS V14.01,2013-03-02 11:49:00,
2013-03-02 06:54:00,21.0,19.3,29.89,North,0,1.0,7.0,93,0.00,,---,0.00,VWS V14.01,2013-03-02 11:54:00,
2013-03-02 06:59:00,20.0,18.3,29.89,NNW,338,4.0,7.0,93,0.00,,---,0.00,VWS V14.01,2013-03-02 11:59:00,
2013-03-02 07:04:00,20.0,18.3,29.89,NNW,338,1.0,4.0,93,0.00,,---,0.00,VWS V14.01,2013-03-02 12:04:00,
2013-03-02 07:09:00,21.0,19.3,29.89,NNW,338,6.0,6.0,93,0.00,,---,0.00,VWS V14.01,2013-03-02 12:09:00,
2013-03-02 07:14:00,20.0,18.0,29.89,NNW,338,8.0,8.0,92,0.00,,---,0.00,VWS V14.01,2013-03-02 12:14:00,
2013-03-02 07:20:00,20.0,18.0,29.90,North,0,2.0,10.0,92,0.00,,---,0.00,VWS V14.01,2013-03-02 12:20:00,
2013-03-02 07:25:00,20.0,18.0,29.90,NNW,338,1.0,7.0,92,0.00,,---,0.00,VWS V14.01,2013-03-02 12:25:00,
2013-03-02 07:30:00,20.0,18.0,29.90,NNW,338,3.0,7.0,92,0.00,,---,0.00,VWS V14.01,2013-03-02 12:30:00,
2013-03-02 07:35:00,20.0,17.8,29.90,NNW,338,5.0,7.0,91,0.00,,---,0.00,VWS V14.01,2013-03-02 12:35:00,
2013-03-02 07:40:00,20.0,17.8,29.90,North,0,4.0,8.0,91,0.00,,---,0.00,VWS V14.01,2013-03-02 12:40:00,
2013-03-02 07:45:00,21.0,18.8,29.90,North,0,2.0,6.0,91,0.00,,---,0.00,VWS V14.01,2013-03-02 12:45:00,
2013-03-02 07:50:00,21.0,18.8,29.90,NNW,338,4.0,6.0,91,0.00,,---,0.00,VWS V14.01,2013-03-02 12:50:00,
2013-03-02 07:55:00,21.0,18.8,29.91,North,0,3.0,7.0,91,0.00,,---,0.00,VWS V14.01,2013-03-02 12:55:00,
2013-03-02 08:01:00,21.0,18.8,29.91,North,0,4.0,5.0,91,0.00,,---,0.00,VWS V14.01,2013-03-02 13:01:00,
2013-03-02 08:06:00,21.0,18.8,29.90,North,0,2.0,5.0,91,0.00,,---,0.00,VWS V14.01,2013-03-02 13:06:00,
2013-03-02 08:11:00,20.0,17.8,29.91,NNE,22,5.0,6.0,91,0.00,,---,0.00,VWS V14.01,2013-03-02 13:11:00,
2013-03-02 08:16:00,21.0,19.0,29.90,ENE,68,3.0,6.0,92,0.00,,---,0.00,VWS V14.01,2013-03-02 13:16:00,
2013-03-02 08:21:00,21.0,19.0,29.90,North,0,4.0,5.0,92,0.00,,---,0.00,VWS V14.01,2013-03-02 13:21:00,
2013-03-02 08:26:00,21.0,18.8,29.91,NNE,22,4.0,6.0,91,0.00,,---,0.00,VWS V14.01,2013-03-02 13:26:00,
2013-03-02 08:31:00,21.0,18.5,29.90,NNW,338,3.0,8.0,90,0.00,,---,0.00,VWS V14.01,2013-03-02 13:31:00,
2013-03-02 08:36:00,21.0,18.8,29.91,North,0,5.0,8.0,91,0.00,,---,0.00,VWS V14.01,2013-03-02 13:36:00,
2013-03-02 08:41:00,21.0,18.8,29.90,North,0,3.0,5.0,91,0.00,,---,0.00,VWS V14.01,2013-03-02 13:41:00,
2013-03-02 08:46:00,21.0,18.5,29.90,North,0,1.0,5.0,90,0.00,,---,0.00,VWS V14.01,2013-03-02 13:46:00,
2013-03-02 08:51:00,21.0,18.5,29.90,NNE,22,3.0,5.0,90,0.00,,---,0.00,VWS V14.01,2013-03-02 13:51:00,
2013-03-02 08:57:00,21.0,18.5,29.90,NE,45,3.0,5.0,90,0.00,,---,0.00,VWS V14.01,2013-03-02 13:57:00,
2013-03-02 09:02:00,21.0,18.3,29.90,NNW,338,2.0,6.0,89,0.00,,---,0.00,VWS V14.01,2013-03-02 14:02:00,
2013-03-02 09:07:00,21.0,18.3,29.90,North,0,3.0,6.0,89,0.00,,---,0.00,VWS V14.01,2013-03-02 14:07:00,
2013-03-02 09:12:00,22.0,19.3,29.90,North,0,5.0,6.0,89,0.00,,---,0.00,VWS V14.01,2013-03-02 14:12:00,
2013-03-02 09:17:00,21.0,17.8,29.90,North,0,4.0,8.0,87,0.00,,---,0.00,VWS V14.01,2013-03-02 14:17:00,
2013-03-02 09:22:00,22.0,18.5,29.90,NNE,22,3.0,7.0,86,0.00,,---,0.00,VWS V14.01,2013-03-02 14:22:00,
2013-03-02 09:27:00,22.0,18.5,29.90,NNW,338,3.0,7.0,86,0.00,,---,0.00,VWS V14.01,2013-03-02 14:27:00,
2013-03-02 09:32:00,22.0,18.5,29.90,North,0,3.0,7.0,86,0.00,,---,0.00,VWS V14.01,2013-03-02 14:32:00,
2013-03-02 09:37:00,22.0,18.2,29.90,North,0,2.0,7.0,85,0.00,,---,0.00,VWS V14.01,2013-03-02 14:37:00,
2013-03-02 09:42:00,22.0,17.6,29.90,North,0,6.0,7.0,83,0.00,,---,0.00,VWS V14.01,2013-03-02 14:42:00,
2013-03-02 09:48:00,23.0,18.6,29.90,NNE,22,2.0,7.0,83,0.00,,---,0.00,VWS V14.01,2013-03-02 14:48:00,
2013-03-02 09:53:00,23.0,18.3,29.90,North,0,3.0,7.0,82,0.00,,---,0.00,VWS V14.01,2013-03-02 14:53:00,
2013-03-02 09:58:00,23.0,18.3,29.90,North,0,2.0,7.0,82,0.00,,---,0.00,VWS V14.01,2013-03-02 14:58:00,
2013-03-02 10:03:00,23.0,18.0,29.90,NNW,338,6.0,7.0,81,0.00,,---,0.00,VWS V14.01,2013-03-02 15:03:00,
2013-03-02 10:08:00,22.0,16.5,29.89,NW,315,5.0,7.0,79,0.00,,---,0.00,VWS V14.01,2013-03-02 15:08:00,
2013-03-02 10:13:00,23.0,17.8,29.90,North,0,3.0,7.0,80,0.00,,---,0.00,VWS V14.01,2013-03-02 15:13:00,
2013-03-02 10:19:00,23.0,17.8,29.89,NNW,338,3.0,7.0,80,0.00,,---,0.00,VWS V14.01,2013-03-02 15:19:00,
2013-03-02 10:24:00,23.0,17.5,29.90,NNW,338,2.0,6.0,79,0.00,,---,0.00,VWS V14.01,2013-03-02 15:24:00,
2013-03-02 10:29:00,22.0,16.2,29.90,North,0,1.0,6.0,78,0.00,,---,0.00,VWS V14.01,2013-03-02 15:29:00,
2013-03-02 10:34:00,23.0,17.8,29.90,North,0,2.0,6.0,80,0.00,,---,0.00,VWS V14.01,2013-03-02 15:34:00,
2013-03-02 10:39:00,23.0,17.8,29.90,NNW,338,2.0,6.0,80,0.00,,---,0.00,VWS V14.01,2013-03-02 15:39:00,
2013-03-02 10:44:00,23.0,17.8,29.90,West,270,3.0,6.0,80,0.00,,---,0.00,VWS V14.01,2013-03-02 15:44:00,
2013-03-02 10:49:00,22.0,17.1,29.90,WNW,292,4.0,7.0,81,0.00,,---,0.00,VWS V14.01,2013-03-02 15:49:00,
2013-03-02 10:55:00,22.0,17.4,29.90,WNW,292,5.0,8.0,82,0.00,,---,0.00,VWS V14.01,2013-03-02 15:55:00,
2013-03-02 11:00:00,22.0,17.4,29.90,WNW,292,6.0,10.0,82,0.00,,---,0.00,VWS V14.01,2013-03-02 16:00:00,
2013-03-02 11:05:00,21.0,16.4,29.90,WNW,292,7.0,12.0,82,0.00,,---,0.00,VWS V14.01,2013-03-02 16:05:00,
2013-03-02 11:10:00,21.0,16.7,29.90,NW,315,5.0,12.0,83,0.00,,---,0.00,VWS V14.01,2013-03-02 16:10:00,
2013-03-02 11:15:00,21.0,16.9,29.90,West,270,5.0,12.0,84,0.00,,---,0.00,VWS V14.01,2013-03-02 16:15:00,
2013-03-02 11:20:00,21.0,16.7,29.90,WNW,292,1.0,12.0,83,0.00,,---,0.00,VWS V14.01,2013-03-02 16:20:00,
2013-03-02 11:25:00,21.0,16.9,29.90,WNW,292,4.0,10.0,84,0.00,,---,0.00,VWS V14.01,2013-03-02 16:25:00,
2013-03-02 11:30:00,21.0,16.9,29.90,WNW,292,5.0,10.0,84,0.00,,---,0.00,VWS V14.01,2013-03-02 16:30:00,
2013-03-02 11:35:00,21.0,16.9,29.90,WNW,292,3.0,11.0,84,0.00,,---,0.00,VWS V14.01,2013-03-02 16:35:00,
2013-03-02 11:40:00,21.0,16.9,29.90,WNW,292,5.0,7.0,84,0.00,,---,0.00,VWS V14.01,2013-03-02 16:40:00,
2013-03-02 11:46:00,21.0,16.9,29.90,North,0,2.0,10.0,84,0.00,,---,0.00,VWS V14.01,2013-03-02 16:46:00,
2013-03-02 11:51:00,21.0,16.9,29.90,WNW,292,7.0,10.0,84,0.00,,---,0.00,VWS V14.01,2013-03-02 16:51:00,
2013-03-02 11:56:00,21.0,16.7,29.90,WNW,292,6.0,10.0,83,0.00,,---,0.00,VWS V14.01,2013-03-02 16:56:00,
2013-03-02 12:01:00,21.0,16.9,29.90,WNW,292,2.0,6.0,84,0.00,,---,0.00,VWS V14.01,2013-03-02 17:01:00,
2013-03-02 12:06:00,21.0,16.9,29.90,NNW,338,4.0,10.0,84,0.00,,---,0.00,VWS V14.01,2013-03-02 17:06:00,
2013-03-02 12:11:00,21.0,16.9,29.90,WNW,292,6.0,11.0,84,0.00,,---,0.00,VWS V14.01,2013-03-02 17:11:00,
2013-03-02 12:16:00,21.0,17.2,29.90,NNW,338,5.0,11.0,85,0.00,,---,0.00,VWS V14.01,2013-03-02 17:16:00,
2013-03-02 12:21:00,21.0,16.9,29.90,West,270,3.0,8.0,84,0.00,,---,0.00,VWS V14.01,2013-03-02 17:21:00,
2013-03-02 12:26:00,21.0,16.9,29.90,NW,315,5.0,12.0,84,0.00,,---,0.00,VWS V14.01,2013-03-02 17:26:00,
2013-03-02 12:31:00,21.0,16.9,29.89,WNW,292,5.0,12.0,84,0.00,,---,0.00,VWS V14.01,2013-03-02 17:31:00,
2013-03-02 12:37:00,21.0,16.9,29.89,NW,315,5.0,12.0,84,0.00,,---,0.00,VWS V14.01,2013-03-02 17:37:00,
2013-03-02 12:42:00,21.0,16.9,29.89,NW,315,1.0,8.0,84,0.00,,---,0.00,VWS V14.01,2013-03-02 17:42:00,
2013-03-02 12:47:00,21.0,16.7,29.89,WNW,292,3.0,10.0,83,0.00,,---,0.00,VWS V14.01,2013-03-02 17:47:00,
2013-03-02 12:52:00,21.0,16.4,29.89,WNW,292,4.0,10.0,82,0.00,,---,0.00,VWS V14.01,2013-03-02 17:52:00,
2013-03-02 12:57:00,22.0,16.8,29.89,NW,315,6.0,10.0,80,0.00,,---,0.00,VWS V14.01,2013-03-02 17:57:00,
2013-03-02 13:02:00,22.0,16.8,29.88,WNW,292,4.0,8.0,80,0.00,,---,0.00,VWS V14.01,2013-03-02 18:02:00,
2013-03-02 13:07:00,22.0,16.8,29.88,West,270,6.0,8.0,80,0.00,,---,0.00,VWS V14.01,2013-03-02 18:07:00,
2013-03-02 13:12:00,22.0,16.8,29.88,NW,315,3.0,9.0,80,0.00,,---,0.00,VWS V14.01,2013-03-02 18:12:00,
2013-03-02 13:18:00,21.0,15.8,29.88,WNW,292,8.0,12.0,80,0.00,,---,0.00,VWS V14.01,2013-03-02 18:18:00,
2013-03-02 13:23:00,21.0,16.1,29.88,NNW,338,3.0,9.0,81,0.00,,---,0.00,VWS V14.01,2013-03-02 18:23:00,
2013-03-02 13:28:00,21.0,16.4,29.88,WNW,292,1.0,9.0,82,0.00,,---,0.00,VWS V14.01,2013-03-02 18:28:00,
2013-03-02 13:33:00,21.0,16.4,29.88,WNW,292,2.0,10.0,82,0.00,,---,0.00,VWS V14.01,2013-03-02 18:33:00,
2013-03-02 13:38:00,21.0,16.7,29.88,NNW,338,8.0,10.0,83,0.00,,---,0.00,VWS V14.01,2013-03-02 18:38:00,
2013-03-02 13:43:00,21.0,16.4,29.88,NW,315,5.0,6.0,82,0.00,,---,0.00,VWS V14.01,2013-03-02 18:43:00,
2013-03-02 13:48:00,21.0,16.7,29.87,WNW,292,2.0,10.0,83,0.00,,---,0.00,VWS V14.01,2013-03-02 18:48:00,
2013-03-02 13:54:00,21.0,16.7,29.87,NNW,338,4.0,10.0,83,0.00,,---,0.00,VWS V14.01,2013-03-02 18:54:00,
2013-03-02 13:59:00,21.0,16.9,29.88,NW,315,5.0,10.0,84,0.00,,---,0.00,VWS V14.01,2013-03-02 18:59:00,
2013-03-02 14:04:00,21.0,16.9,29.87,NNW,338,6.0,11.0,84,0.00,,---,0.00,VWS V14.01,2013-03-02 19:04:00,
2013-03-02 14:09:00,21.0,17.2,29.87,NNW,338,3.0,11.0,85,0.00,,---,0.00,VWS V14.01,2013-03-02 19:09:00,
2013-03-02 14:14:00,21.0,17.2,29.87,NNW,338,3.0,11.0,85,0.00,,---,0.00,VWS V14.01,2013-03-02 19:14:00,
2013-03-02 14:19:00,21.0,17.2,29.87,NNW,338,3.0,11.0,85,0.00,,---,0.00,VWS V14.01,2013-03-02 19:19:00,
2013-03-02 14:24:00,21.0,17.2,29.87,NW,315,1.0,9.0,85,0.00,,---,0.00,VWS V14.01,2013-03-02 19:24:00,
2013-03-02 14:30:00,21.0,17.5,29.87,NW,315,2.0,9.0,86,0.00,,---,0.00,VWS V14.01,2013-03-02 19:30:00,
2013-03-02 14:35:00,21.0,17.5,29.87,NW,315,4.0,9.0,86,0.00,,---,0.00,VWS V14.01,2013-03-02 19:35:00,
2013-03-02 14:40:00,21.0,17.8,29.87,West,270,3.0,10.0,87,0.00,,---,0.00,VWS V14.01,2013-03-02 19:40:00,
2013-03-02 14:45:00,21.0,17.8,29.87,NNW,338,3.0,8.0,87,0.00,,---,0.00,VWS V14.01,2013-03-02 19:45:00,
2013-03-02 14:50:00,21.0,17.8,29.87,NNE,22,5.0,8.0,87,0.00,,---,0.00,VWS V14.01,2013-03-02 19:50:00,
2013-03-02 14:55:00,21.0,17.8,29.87,WNW,292,3.0,10.0,87,0.00,,---,0.00,VWS V14.01,2013-03-02 19:55:00,
2013-03-02 15:00:00,21.0,17.8,29.87,NW,315,5.0,10.0,87,0.00,,---,0.00,VWS V14.01,2013-03-02 20:00:00,
2013-03-02 15:05:00,21.0,17.8,29.87,NNW,338,1.0,8.0,87,0.00,,---,0.00,VWS V14.01,2013-03-02 20:05:00,
2013-03-02 15:11:00,21.0,17.5,29.87,NW,315,3.0,10.0,86,0.00,,---,0.00,VWS V14.01,2013-03-02 20:11:00,
2013-03-02 15:16:00,21.0,17.8,29.87,NW,315,2.0,10.0,87,0.00,,---,0.00,VWS V14.01,2013-03-02 20:16:00,
2013-03-02 15:21:00,21.0,17.8,29.87,NNW,338,5.0,7.0,87,0.00,,---,0.00,VWS V14.01,2013-03-02 20:21:00,
2013-03-02 15:26:00,21.0,17.8,29.87,NNW,338,7.0,10.0,87,0.00,,---,0.00,VWS V14.01,2013-03-02 20:26:00,
2013-03-02 15:31:00,21.0,17.8,29.87,NW,315,3.0,10.0,87,0.00,,---,0.00,VWS V14.01,2013-03-02 20:31:00,
2013-03-02 15:36:00,21.0,17.8,29.87,NNW,338,6.0,10.0,87,0.00,,---,0.00,VWS V14.01,2013-03-02 20:36:00,
2013-03-02 15:41:00,21.0,17.8,29.87,NNW,338,5.0,8.0,87,0.00,,---,0.00,VWS V14.01,2013-03-02 20:41:00,
2013-03-02 15:47:00,21.0,18.0,29.87,NNW,338,3.0,8.0,88,0.00,,---,0.00,VWS V14.01,2013-03-02 20:47:00,
2013-03-02 15:52:00,21.0,18.0,29.87,NNW,338,5.0,8.0,88,0.00,,---,0.00,VWS V14.01,2013-03-02 20:52:00,
2013-03-02 15:57:00,21.0,18.0,29.87,NW,315,0.0,8.0,88,0.00,,---,0.00,VWS V14.01,2013-03-02 20:57:00,
2013-03-02 16:02:00,21.0,18.0,29.87,NNE,22,3.0,6.0,88,0.00,,---,0.00,VWS V14.01,2013-03-02 21:02:00,
2013-03-02 16:07:00,21.0,18.3,29.88,WNW,292,3.0,7.0,89,0.00,,---,0.00,VWS V14.01,2013-03-02 21:07:00,
2013-03-02 16:12:00,21.0,18.3,29.88,WNW,292,1.0,8.0,89,0.00,,---,0.00,VWS V14.01,2013-03-02 21:12:00,
2013-03-02 16:17:00,21.0,18.3,29.88,NNW,338,5.0,8.0,89,0.00,,---,0.00,VWS V14.01,2013-03-02 21:17:00,
2013-03-02 16:23:00,21.0,18.3,29.88,West,270,3.0,9.0,89,0.00,,---,0.00,VWS V14.01,2013-03-02 21:23:00,
2013-03-02 16:28:00,21.0,18.3,29.88,NNW,338,2.0,9.0,89,0.00,,---,0.00,VWS V14.01,2013-03-02 21:28:00,
2013-03-02 16:33:00,20.0,17.0,29.88,NNW,338,2.0,9.0,88,0.00,,---,0.00,VWS V14.01,2013-03-02 21:33:00,
2013-03-02 16:38:00,21.0,18.3,29.88,NNW,338,7.0,9.0,89,0.00,,---,0.00,VWS V14.01,2013-03-02 21:38:00,
2013-03-02 16:43:00,21.0,18.3,29.88,NNW,338,5.0,8.0,89,0.00,,---,0.00,VWS V14.01,2013-03-02 21:43:00,
2013-03-02 16:48:00,20.0,17.3,29.87,WNW,292,2.0,8.0,89,0.00,,---,0.00,VWS V14.01,2013-03-02 21:48:00,
2013-03-02 16:54:00,20.0,17.3,29.88,NNW,338,2.0,8.0,89,0.00,,---,0.00,VWS V14.01,2013-03-02 21:54:00,
2013-03-02 16:59:00,20.0,17.3,29.88,NW,315,3.0,8.0,89,0.00,,---,0.00,VWS V14.01,2013-03-02 21:59:00,
2013-03-02 17:04:00,20.0,17.5,29.87,WNW,292,6.0,7.0,90,0.00,,---,0.00,VWS V14.01,2013-03-02 22:04:00,
2013-03-02 17:09:00,21.0,18.5,29.88,NNW,338,0.0,7.0,90,0.00,,---,0.00,VWS V14.01,2013-03-02 22:09:00,
2013-03-02 17:14:00,21.0,18.5,29.87,NW,315,1.0,8.0,90,0.00,,---,0.00,VWS V14.01,2013-03-02 22:14:00,
2013-03-02 17:19:00,21.0,18.5,29.87,WNW,292,5.0,8.0,90,0.00,,---,0.00,VWS V14.01,2013-03-02 22:19:00,
2013-03-02 17:24:00,21.0,18.5,29.88,NW,315,1.0,7.0,90,0.00,,---,0.00,VWS V14.01,2013-03-02 22:24:00,
2013-03-02 17:29:00,21.0,18.3,29.87,WNW,292,3.0,8.0,89,0.00,,---,0.00,VWS V14.01,2013-03-02 22:29:00,
2013-03-02 17:35:00,21.0,18.3,29.88,NW,315,1.0,8.0,89,0.00,,---,0.00,VWS V14.01,2013-03-02 22:35:00,
2013-03-02 17:40:00,21.0,18.3,29.88,West,270,1.0,8.0,89,0.00,,---,0.00,VWS V14.01,2013-03-02 22:40:00,
2013-03-02 17:45:00,21.0,18.3,29.87,WNW,292,2.0,10.0,89,0.00,,---,0.00,VWS V14.01,2013-03-02 22:45:00,
2013-03-02 17:50:00,21.0,18.3,29.88,WNW,292,1.0,10.0,89,0.00,,---,0.00,VWS V14.01,2013-03-02 22:50:00,
2013-03-02 17:55:00,21.0,18.3,29.88,WNW,292,4.0,10.0,89,0.00,,---,0.00,VWS V14.01,2013-03-02 22:55:00,
2013-03-02 18:00:00,21.0,18.3,29.88,West,270,7.0,10.0,89,0.00,,---,0.00,VWS V14.01,2013-03-02 23:00:00,
2013-03-02 18:05:00,21.0,18.3,29.88,NW,315,5.0,8.0,89,0.00,,---,0.00,VWS V14.01,2013-03-02 23:05:00,
2013-03-02 18:10:00,21.0,18.3,29.88,West,270,8.0,8.0,89,0.00,,---,0.00,VWS V14.01,2013-03-02 23:10:00,
2013-03-02 18:15:00,21.0,18.3,29.88,WNW,292,5.0,9.0,89,0.00,,---,0.00,VWS V14.01,2013-03-02 23:15:00,
2013-03-02 18:21:00,21.0,18.3,29.88,NNW,338,2.0,4.0,89,0.00,,---,0.00,VWS V14.01,2013-03-02 23:21:00,
2013-03-02 18:26:00,21.0,18.3,29.87,NNW,338,2.0,10.0,89,0.00,,---,0.00,VWS V14.01,2013-03-02 23:26:00,
2013-03-02 18:31:00,21.0,18.5,29.88,NW,315,3.0,10.0,90,0.00,,---,0.00,VWS V14.01,2013-03-02 23:31:00,
2013-03-02 18:36:00,21.0,18.5,29.88,WNW,292,6.0,10.0,90,0.00,,---,0.00,VWS V14.01,2013-03-02 23:36:00,
2013-03-02 18:41:00,21.0,18.5,29.88,NNW,338,2.0,4.0,90,0.00,,---,0.00,VWS V14.01,2013-03-02 23:41:00,
2013-03-02 18:46:00,21.0,18.5,29.89,NW,315,1.0,9.0,90,0.00,,---,0.00,VWS V14.01,2013-03-02 23:46:00,
2013-03-02 18:51:00,21.0,18.5,29.89,West,270,1.0,9.0,90,0.00,,---,0.00,VWS V14.01,2013-03-02 23:51:00,
2013-03-02 18:56:00,21.0,18.5,29.89,WNW,292,2.0,9.0,90,0.00,,---,0.00,VWS V14.01,2013-03-02 23:56:00,
2013-03-02 19:01:00,21.0,18.5,29.88,WNW,292,7.0,9.0,90,0.00,,---,0.00,VWS V14.01,2013-03-03 00:01:00,
2013-03-02 19:06:00,21.0,18.5,29.88,WNW,292,3.0,9.0,90,0.00,,---,0.00,VWS V14.01,2013-03-03 00:06:00,
2013-03-02 19:11:00,21.0,18.8,29.88,WNW,292,5.0,9.0,91,0.00,,---,0.00,VWS V14.01,2013-03-03 00:11:00,
2013-03-02 19:17:00,21.0,18.8,29.88,WNW,292,5.0,9.0,91,0.00,,---,0.00,VWS V14.01,2013-03-03 00:17:00,
2013-03-02 19:22:00,21.0,18.8,29.88,WNW,292,8.0,8.0,91,0.00,,---,0.00,VWS V14.01,2013-03-03 00:22:00,
2013-03-02 19:27:00,21.0,18.8,29.88,WNW,292,4.0,10.0,91,0.00,,---,0.00,VWS V14.01,2013-03-03 00:27:00,
2013-03-02 19:32:00,21.0,18.8,29.88,WNW,292,5.0,10.0,91,0.00,,---,0.00,VWS V14.01,2013-03-03 00:32:00,
2013-03-02 19:37:00,21.0,18.8,29.88,NNW,338,8.0,10.0,91,0.00,,---,0.00,VWS V14.01,2013-03-03 00:37:00,
2013-03-02 19:42:00,21.0,18.8,29.88,WNW,292,5.0,8.0,91,0.00,,---,0.00,VWS V14.01,2013-03-03 00:42:00,
2013-03-02 19:47:00,21.0,18.8,29.88,WNW,292,5.0,8.0,91,0.00,,---,0.00,VWS V14.01,2013-03-03 00:47:00,
2013-03-02 19:52:00,21.0,18.8,29.88,WNW,292,4.0,8.0,91,0.00,,---,0.00,VWS V14.01,2013-03-03 00:52:00,
2013-03-02 19:57:00,21.0,18.8,29.88,NNW,338,4.0,8.0,91,0.00,,---,0.00,VWS V14.01,2013-03-03 00:57:00,
2013-03-02 20:03:00,21.0,18.8,29.87,NW,315,3.0,8.0,91,0.00,,---,0.00,VWS V14.01,2013-03-03 01:03:00,
2013-03-02 20:08:00,21.0,18.8,29.87,WNW,292,4.0,8.0,91,0.00,,---,0.00,VWS V14.01,2013-03-03 01:08:00,
2013-03-02 20:13:00,21.0,19.0,29.88,WNW,292,5.0,8.0,92,0.00,,---,0.00,VWS V14.01,2013-03-03 01:13:00,
2013-03-02 20:18:00,21.0,19.0,29.88,WNW,292,5.0,9.0,92,0.00,,---,0.00,VWS V14.01,2013-03-03 01:18:00,
2013-03-02 20:23:00,21.0,19.0,29.88,NW,315,6.0,8.0,92,0.00,,---,0.00,VWS V14.01,2013-03-03 01:23:00,
2013-03-02 20:28:00,21.0,19.0,29.88,WNW,292,7.0,9.0,92,0.00,,---,0.00,VWS V14.01,2013-03-03 01:28:00,
2013-03-02 20:33:00,22.0,20.0,29.88,West,270,5.0,10.0,92,0.00,,---,0.00,VWS V14.01,2013-03-03 01:33:00,
2013-03-02 20:38:00,22.0,20.3,29.88,NNW,338,3.0,10.0,93,0.00,,---,0.00,VWS V14.01,2013-03-03 01:38:00,
2013-03-02 20:43:00,22.0,20.0,29.87,West,270,4.0,8.0,92,0.00,,---,0.00,VWS V14.01,2013-03-03 01:43:00,
2013-03-02 20:49:00,22.0,20.3,29.87,NW,315,3.0,8.0,93,0.00,,---,0.00,VWS V14.01,2013-03-03 01:49:00,
2013-03-02 20:54:00,22.0,20.3,29.87,NW,315,6.0,10.0,93,0.00,,---,0.00,VWS V14.01,2013-03-03 01:54:00,
2013-03-02 20:59:00,22.0,20.3,29.87,West,270,1.0,10.0,93,0.00,,---,0.00,VWS V14.01,2013-03-03 01:59:00,
2013-03-02 21:04:00,22.0,20.3,29.87,NNW,338,1.0,8.0,93,0.00,,---,0.00,VWS V14.01,2013-03-03 02:04:00,
2013-03-02 21:09:00,22.0,20.3,29.88,NNW,338,2.0,8.0,93,0.00,,---,0.00,VWS V14.01,2013-03-03 02:09:00,
2013-03-02 21:14:00,22.0,20.3,29.88,WNW,292,1.0,8.0,93,0.00,,---,0.00,VWS V14.01,2013-03-03 02:14:00,
2013-03-02 21:19:00,22.0,20.3,29.88,West,270,1.0,9.0,93,0.00,,---,0.00,VWS V14.01,2013-03-03 02:19:00,
2013-03-02 21:24:00,22.0,20.3,29.88,WNW,292,5.0,9.0,93,0.00,,---,0.00,VWS V14.01,2013-03-03 02:24:00,
2013-03-02 21:29:00,22.0,20.3,29.88,WNW,292,5.0,9.0,93,0.00,,---,0.00,VWS V14.01,2013-03-03 02:29:00,
2013-03-02 21:34:00,22.0,20.5,29.88,NNW,338,3.0,9.0,94,0.00,,---,0.00,VWS V14.01,2013-03-03 02:34:00,
2013-03-02 21:39:00,22.0,20.5,29.87,NW,315,1.0,9.0,94,0.00,,---,0.00,VWS V14.01,2013-03-03 02:39:00,
2013-03-02 21:45:00,22.0,20.5,29.87,NW,315,3.0,11.0,94,0.00,,---,0.00,VWS V14.01,2013-03-03 02:45:00,
2013-03-02 21:50:00,22.0,20.5,29.87,NW,315,3.0,11.0,94,0.00,,---,0.00,VWS V14.01,2013-03-03 02:50:00,
2013-03-02 21:55:00,22.0,20.3,29.87,NW,315,5.0,11.0,93,0.00,,---,0.00,VWS V14.01,2013-03-03 02:55:00,
2013-03-02 22:00:00,22.0,20.3,29.87,NNW,338,4.0,11.0,93,0.00,,---,0.00,VWS V14.01,2013-03-03 03:00:00,
2013-03-02 22:05:00,22.0,20.3,29.87,North,0,3.0,9.0,93,0.00,,---,0.00,VWS V14.01,2013-03-03 03:05:00,
2013-03-02 22:10:00,22.0,20.3,29.87,NNW,338,3.0,9.0,93,0.00,,---,0.00,VWS V14.01,2013-03-03 03:10:00,
2013-03-02 22:15:00,22.0,20.0,29.87,NW,315,3.0,10.0,92,0.00,,---,0.00,VWS V14.01,2013-03-03 03:15:00,
2013-03-02 22:20:00,22.0,20.3,29.87,NNW,338,5.0,10.0,93,0.00,,---,0.00,VWS V14.01,2013-03-03 03:20:00,
2013-03-02 22:25:00,22.0,20.0,29.87,NW,315,1.0,11.0,92,0.00,,---,0.00,VWS V14.01,2013-03-03 03:25:00,
2013-03-02 22:30:00,22.0,20.0,29.87,NW,315,1.0,11.0,92,0.00,,---,0.00,VWS V14.01,2013-03-03 03:30:00,
2013-03-02 22:36:00,22.0,20.0,29.87,NW,315,6.0,11.0,92,0.00,,---,0.00,VWS V14.01,2013-03-03 03:36:00,
2013-03-02 22:41:00,22.0,19.8,29.87,NW,315,5.0,13.0,91,0.00,,---,0.00,VWS V14.01,2013-03-03 03:41:00,
2013-03-02 22:46:00,22.0,19.8,29.86,NNW,338,2.0,13.0,91,0.00,,---,0.00,VWS V14.01,2013-03-03 03:46:00,
2013-03-02 22:51:00,22.0,19.5,29.86,NNW,338,5.0,14.0,90,0.00,,---,0.00,VWS V14.01,2013-03-03 03:51:00,
2013-03-02 22:56:00,22.0,19.8,29.87,NNW,338,3.0,14.0,91,0.00,,---,0.00,VWS V14.01,2013-03-03 03:56:00,
2013-03-02 23:01:00,21.0,18.5,29.87,NNW,338,6.0,14.0,90,0.00,,---,0.00,VWS V14.01,2013-03-03 04:01:00,
2013-03-02 23:06:00,21.0,18.5,29.87,NNW,338,3.0,14.0,90,0.00,,---,0.00,VWS V14.01,2013-03-03 04:06:00,
2013-03-02 23:11:00,21.0,18.5,29.87,NNW,338,5.0,14.0,90,0.00,,---,0.00,VWS V14.01,2013-03-03 04:11:00,
2013-03-02 23:16:00,21.0,18.3,29.87,NNW,338,6.0,14.0,89,0.00,,---,0.00,VWS V14.01,2013-03-03 04:16:00,
2013-03-02 23:21:00,21.0,18.3,29.87,North,0,7.0,12.0,89,0.00,,---,0.00,VWS V14.01,2013-03-03 04:21:00,
2013-03-02 23:26:00,21.0,18.3,29.86,NNW,338,8.0,15.0,89,0.00,,---,0.00,VWS V14.01,2013-03-03 04:26:00,
2013-03-02 23:32:00,21.0,18.3,29.86,NNW,338,11.0,15.0,89,0.00,,---,0.00,VWS V14.01,2013-03-03 04:32:00,
2013-03-02 23:37:00,21.0,18.3,29.86,NNE,22,5.0,15.0,89,0.00,,---,0.00,VWS V14.01,2013-03-03 04:37:00,
2013-03-02 23:42:00,21.0,18.3,29.86,NW,315,3.0,10.0,89,0.00,,---,0.00,VWS V14.01,2013-03-03 04:42:00,
2013-03-02 23:47:00,21.0,18.3,29.86,NNW,338,10.0,11.0,89,0.00,,---,0.00,VWS V14.01,2013-03-03 04:47:00,
2013-03-02 23:52:00,21.0,18.3,29.86,NNW,338,3.0,11.0,89,0.00,,---,0.00,VWS V14.01,2013-03-03 04:52:00,
2013-03-02 23:57:00,21.0,18.3,29.86,NNW,338,6.0,11.0,89,0.00,,---,0.00,VWS V14.01,2013-03-03 04:57:00,